sat.trackr.live / text

‹ back to catalog

STARLINK-31135

NORAD 58771 · 2024-011G

PAYLOAD ACTIVE UNKNOWN

§ Identity

Operator
Country
US
Launch date
2024-01-14
Launch site
AFWTR
Launch vehicle
Mass (kg)
RCS (m²)

Purposes: comms

External: N2YO · Heavens-Above · Gunter

§ Orbital elements

Epoch: 2026-09-20T05:29:03.915456Z

Period
93.85 min
Inclination
53.1626°
Eccentricity
0.0001202
Mean motion
15.34397532 rev/d
Perigee alt
461.9 km
Apogee alt
463.5 km
Semi-major
6,840.8 km
B*
2.1948e-5
RAAN
186.6357°
Arg perigee
93.4763°
Mean anomaly
266.6378°
Rev number
15,010

§ Raw data

STARLINK-311351 58771U 24011G   26263.22851754  .00000365  00000+0  21948-4 0  99902 58771  53.1626 186.6357 0001202  93.4763 266.6378 15.34397532150103

JSON: /api/v1/satellites/58771 · /tle

For live sub-satellite position, see the globe view (requires WebGL).

§ Visibility from observer

Set your observer location to see the next 7 days of passes ≥ 10°. The values pass through the URL so the page stays shareable.

No JS? Fill the form by hand. The geolocation button needs JavaScript.